Location: Krakow
(50.0830°N, 19.9170°E)
Time: 20:22:58
(UTC+01:00)

Altair - Pass Details

Date: 08 December 2023
Orbit: 1501 x 1682 km, 47.2° (Epoch: 03 March)

Event Time Altitude Azimuth Distance (km) Brightness Sun altitude
Rises 13:04:32 0° 287° (WNW) 4,726 10.1 14.4°
Reaches altitude 10° 13:07:51 10° 281° (W) 3,718 9.7 14.2°
Maximum altitude 13:16:15 40° 216° (SW) 2,112 9.6 13.6°
Drops below altitude 10° 13:24:29 10° 152° (SSE) 3,644 10.1 13.1°
Sets 13:27:43 0° 145° (SE) 4,624 10.4 12.8°
